Weather History for Fort Stockton, TX

Change the Weather History Date:

Wednesday, May 7, 2014

  Actual Average Record
Temperature  
Mean Temperature 82 °F -  
Max Temperature 95 °F 87 °F 102 °F (2002)
Min Temperature 68 °F 59 °F 48 °F (1999)
Cooling Degree Days 16    
Growing Degree Days 32 (Base 50)    
Moisture  
Dew Point 41 °F    
Average Humidity 26    
Maximum Humidity 47    
Minimum Humidity 10    
Precipitation  
Precipitation 0.01 in - - ()
Sea Level Pressure  
Sea Level Pressure 29.61 in    
Wind  
Wind Speed 18 mph (SSW)    
Max Wind Speed 24 mph    
Max Gust Speed 36 mph    
Visibility 10 miles    
Events      
Averages and records for this station are not official NWS values.
T = Trace of Precipitation, MM = Missing Value Source: NWS Daily Summary

Daily Weather History Graph

Daily Weather History Graph

Search for Another Location

Airport:

Trip Planner

Search our weather history database for the weather conditions in past years. The results will help you decide how hot, cold, wet, or windy it might be!

Date:

Astronomy

May. 07, 2014 Rise Set
Actual Time 7:02 AM CDT 8:34 PM CDT
Civil Twilight 6:36 AM CDT 9:00 PM CDT
Nautical Twilight 6:05 AM CDT 9:31 PM CDT
Astronomical Twilight 5:32 AM CDT 10:04 PM CDT
Moon 2:08 PM CDT (5/7) 2:34 AM CDT (5/7)
Length of Visible Light 14h 24m
Length of Day
13h 32m
First Quarter, 55% of the Moon is Illuminated
May 7
First Quarter
May 14
Full
May 21
Last Quarter
May 28
New
Jun 5
First Quarter

Hourly Weather History & Observations

Time (CDT) Temp. Heat Index Dew Point Humidity Pressure Visibility Wind Dir Wind Speed Gust Speed Precip Events Conditions
12:53 AM 78.1 °F - 41.0 °F 27% 29.63 in 10.0 mi SSW 24.2 mph 35.7 mph N/A   Clear
1:53 AM 75.9 °F - 42.1 °F 30% 29.63 in 10.0 mi SSW 15.0 mph - N/A   Clear
2:53 AM 79.0 °F - 39.9 °F 25% 29.61 in 10.0 mi SSW 16.1 mph - N/A   Clear
4:53 AM 71.1 °F - 45.0 °F 39% 29.60 in 10.0 mi South 15.0 mph - N/A   Clear
5:53 AM 69.1 °F - 45.0 °F 42% 29.61 in 10.0 mi SSW 13.8 mph - N/A   Clear
6:53 AM 68.0 °F - 44.1 °F 42% 29.63 in 10.0 mi South 12.7 mph - N/A   Clear
7:53 AM 70.0 °F - 45.0 °F 41% 29.66 in 10.0 mi SSW 10.4 mph - N/A   Clear
8:53 AM 79.0 °F - 45.0 °F 30% 29.66 in 10.0 mi South 16.1 mph - N/A   Clear
9:53 AM 82.9 °F - 42.1 °F 24% 29.67 in 10.0 mi SSW 18.4 mph 26.5 mph N/A   Clear
10:53 AM 86.0 °F - 39.9 °F 20% 29.66 in 10.0 mi SW 19.6 mph - N/A   Clear
12:53 PM 91.0 °F - 35.1 °F 14% 29.63 in 10.0 mi WSW 21.9 mph 29.9 mph N/A   Clear
1:53 PM 91.9 °F - 33.1 °F 12% 29.60 in 10.0 mi WSW 17.3 mph 28.8 mph N/A   Clear
2:53 PM 91.9 °F - 35.1 °F 13% 29.57 in 10.0 mi South 16.1 mph 28.8 mph N/A   Clear
3:01 PM 93.9 °F - 35.1 °F 13% 29.74 in 10.0 mi SW 24.2 mph 29.9 mph N/A   Clear
3:53 PM 95.0 °F - 34.0 °F 12% 29.55 in 10.0 mi SW 21.9 mph 34.5 mph N/A   Partly Cloudy
4:53 PM 91.0 °F - 32.0 °F 12% 29.54 in 10.0 mi SW 23.0 mph 27.6 mph N/A   Clear
5:53 PM 91.0 °F - 30.0 °F 11% 29.53 in 10.0 mi SW 18.4 mph 34.5 mph N/A   Clear
6:53 PM 91.0 °F - 26.1 °F 10% 29.52 in 10.0 mi SW 20.7 mph 32.2 mph N/A   Clear
7:53 PM 90.0 °F - 28.0 °F 11% 29.51 in 10.0 mi WSW 17.3 mph - N/A   Clear
8:53 PM 82.9 °F - 30.0 °F 15% 29.52 in 10.0 mi SW 8.1 mph - N/A   Clear
9:53 PM 82.0 °F 81.3 °F 54.0 °F 38% 29.53 in 10.0 mi SSE 11.5 mph 20.7 mph N/A   Clear
10:53 PM 79.0 °F - 57.0 °F 47% 29.55 in 10.0 mi SSE 18.4 mph 34.5 mph N/A   Clear
11:46 PM 79.0 °F - 57.0 °F 47% 29.77 in 10.0 mi SW 8.1 mph - N/A   Scattered Clouds
11:53 PM 79.0 °F - 57.0 °F 47% 29.62 in 10.0 mi WSW 13.8 mph 20.7 mph N/A   Mostly Cloudy